Regional Weather Roundup
Issued by NWS Portland, ME

Home | Current Version | Previous Version | Text Only | Print | Product List | Glossary On
Versions: 1 2 3 4 5 6 7 8 9 10 11 12 13 14 15 16 17 18 19 20 21 22 23 24 25 26 27 28 29 30 31 32 33 34 35 36 37 38 39 40 41 42 43 44 45 46 47 48 49 50
000
ASUS41 KGYX 110410
RWRGYX
WEATHER ROUNDUP FOR MAINE AND NEW HAMPSHIRE
NATIONAL WEATHER SERVICE GRAY ME
1100 PM EST SUN DEC 10 2017

MEZ002-005-006-010-012-015-018-020-021-024-026-027-029-110500-
MAINE

CITY           SKY/WX    TMP DP  RH WIND       PRES   REMARKS
PORTLAND       CLOUDY    30  21  69 SW10      29.90R
SANFORD        CLOUDY    23  20  88 SW5       29.91R
BAR HARBOR     PTCLDY    25  23  92 W3        29.89R
WISCASSET      CLEAR     21  20  96 CALM      29.90S
ROCKLAND       CLEAR     23  22  96 CALM      29.89R
FRYEBURG       CLOUDY    25  22  88 CALM      29.86R
LEWISTONAUBURN CLEAR     24  22  91 S8        29.87R
AUGUSTA        CLEAR     24  20  84 S6        29.87R
WATERVILLE     PTCLDY    18  15  88 CALM      29.81S
BANGOR         CLEAR     17  15  92 S5        29.87R
GREENVILLE       N/A     14   9  80 CALM      29.74S
MILLINOCKET    CLEAR     19  13  77 CALM      29.84R
HOULTON        CLEAR     17  13  84 S5        29.79R
PRESQUE ISLE   CLEAR     16  11  80 W5        29.80R
FRENCHVILLE    CLOUDY    11   9  92 NW6       29.72R
CARIBOU        CLEAR     16   9  74 SW6       29.76R
$$

NHZ002-005-008-009-011-012-014-110500-
NEW HAMPSHIRE

CITY           SKY/WX    TMP DP  RH WIND       PRES   REMARKS
PORTSMOUTH     CLOUDY    30  21  71 S5        29.91S
ROCHESTER      CLOUDY    28  22  78 CALM      29.90R
NASHUA         CLOUDY    28  24  85 CALM      29.93R
MANCHESTER     CLOUDY    29  22  75 S6        29.90S
CONCORD        CLOUDY    28  21  75 SE5       29.90R
LACONIA        CLOUDY    29  19  66 SW9       29.87
PLYMOUTH       CLOUDY    28  22  79 CALM      29.86S
BERLIN         CLOUDY    16  13  88 CALM      29.79R
WHITEFIELD     CLOUDY    19  17  92 CALM      29.79S
JAFFREY        CLOUDY    27  22  81 S7        29.87S
KEENE          CLOUDY    25  22  88 CALM      29.90S
LEBANON        CLOUDY    31  19  61 S9        29.85R
MT WASHINGTON  SNOW       5   5 100 W46G53      N/A  VSB 0   WCI -23
$$

VTZ005-007-008-110500-
VERMONT

CITY           SKY/WX    TMP DP  RH WIND       PRES   REMARKS
ST JOHNSBURY     N/A     27  22  81 MISG      29.80R
MONTPELIER     CLOUDY    27  19  72 SW12G18   29.82S WCI  17
BURLINGTON     FLURRIES  31  22  69 SW8       29.83R
$$

MAZ007-012-024-CTZ003-RIZ002-NYZ038-NYZ072-110500-
SOUTHERN NEW ENGLAND AND NY

CITY           SKY/WX    TMP DP  RH WIND       PRES   REMARKS
BOSTON         CLOUDY    33  24  69 SW12      29.96R
WORCESTER      CLOUDY    28  20  71 SW12      29.90S WCI  18
NANTUCKET      CLOUDY    39  25  57 NW3       30.00R
PROVIDENCE     CLOUDY    35  24  64 SW9       29.98R
HARTFORD       MOCLDY    33  22  63 SW14      29.95S
ALBANY         CLOUDY    31  21  66 S8        29.91R
NEW YORK CITY  CLOUDY    37  20  50 SW10      30.01S
$$

ANZ081-ANZ082-ANZ150-NHZ014-MEZ023>029-110500-
COASTAL MARINE OBSERVATIONS

STATION/POSITION TIME  TEMP    WIND        PRES    WAVE
                       AIR SEA DIR/SP/G            HT/PER
                 (UTC) (F)     (DEG/KT/KT) (MB)    (FT/S)
MOUNT DESERT ROC 0400   38     250/ 22/ 25 1011.9R
MATINICUS ROCK   0300   37     260/ 25/ 31 1011.0R
ISLE OF SHOALS   0300   35     240/ 20/ 22 1012.9R
JEFFREYS LEDGE   0336      48                N/A     6/11
GEORGES BANK BUO 0250   46 51              1015.0   11/11
$$

.............KEY..............
   WCI - WIND CHILL
   TC  - TEMPERATURE IN CELSIUS
   VSB - VISIBILITY IN MILES
   HX  - HEAT INDEX
   FAIR- INDICATES FEW OR NO CLOUDS BELOW 12,000 FT, WITH NO
         SIGNIFICANT WEATHER AND/OR OBSTRUCTIONS TO VISIBILITY.





USA.gov is the U.S. government's official web portal to all federal, state and local government web resources and services.